OE8KKK-11 Weather Reports


Display with metric or nautical units.
time (UTC)temp
F
wind
direction
speed
MPH
gust
MPH
rain 1hr
in
rain 24hr
in
rain mn
in
humidity
%
barometer
mb
20200219092457 40 321 1.0 3.0 0.00 0.00 0.00 77 1022.4
20200219091957 40 325 2.0 3.0 0.00 0.00 0.00 78 1022.4
20200219091456 40 325 2.0 3.0 0.00 0.00 0.00 78 1022.4
20200219090956 40 325 2.0 4.0 0.00 0.00 0.00 77 1022.5
20200219090456 40 324 2.0 4.0 0.00 0.00 0.00 76 1022.6
20200219085955 40 326 1.0 4.0 0.00 0.00 0.00 76 1022.5
20200219085455 39 266 1.0 2.0 0.00 0.00 0.00 84 1021.4
20200219084955 39 266 1.0 2.0 0.00 0.00 0.00 84 1021.6
20200219084455 38 266 1.0 3.0 0.00 0.00 0.00 84 1022.9
20200219083954 38 266 0.0 3.0 0.00 0.00 0.00 86 1023.0
20200219083454 38 287 0.0 0.0 0.00 0.00 0.00 88 1023.2
20200219082954 38 287 1.0 2.0 0.00 0.00 0.00 88 1023.3
20200219082453 38 287 0.0 2.0 0.00 0.00 0.00 88 1023.0
20200219081953 37 286 1.0 1.0 0.00 0.00 0.00 89 1023.3
20200219081453 37 286 1.0 3.0 0.00 0.00 0.00 89 1023.3
20200219080952 37 301 1.0 3.0 0.00 0.00 0.00 90 1022.8
20200219080452 37 292 0.0 3.0 0.00 0.00 0.00 90 1023.2
20200219075952 37 286 0.0 0.0 0.00 0.00 0.00 91 1023.2
20200219075452 37 286 0.0 0.0 0.00 0.00 0.00 91 1023.2
20200219074951 36 286 0.0 0.0 0.00 0.00 0.00 91 1023.2
20200219074451 36 286 0.0 0.0 0.00 0.00 0.00 91 1023.2
20200219073951 36 286 0.0 0.0 0.00 0.00 0.00 91 1023.2
20200219073450 36 286 0.0 0.0 0.00 0.00 0.00 91 1023.3
20200219072950 36 286 0.0 0.0 0.00 0.00 0.00 91 1023.4
20200219072450 36 286 0.0 0.0 0.00 0.00 0.00 91 1023.3
20200219071950 36 286 1.0 0.0 0.00 0.00 0.00 91 1023.3
20200219071449 36 286 1.0 2.0 0.00 0.00 0.00 91 1023.3
20200219070949 36 286 0.0 2.0 0.00 0.00 0.00 91 1023.3
20200219070449 35 286 0.0 2.0 0.00 0.00 0.00 91 1023.3
20200219065948 36 286 0.0 2.0 0.00 0.00 0.00 90 1023.3
20200219065448 36 286 0.0 1.0 0.00 0.00 0.00 90 1023.4
20200219064948 36 286 0.0 2.0 0.00 0.00 0.00 90 1023.4
20200219064448 36 286 0.0 2.0 0.00 0.00 0.00 90 1023.3
20200219063947 36 286 0.0 2.0 0.00 0.00 0.00 91 1023.3
20200219063447 36 286 0.0 2.0 0.00 0.00 0.00 91 1023.4
20200219062947 36 286 0.0 0.0 0.00 0.00 0.00 91 1023.5
20200219062446 36 286 0.0 0.0 0.00 0.00 0.00 91 1023.4
20200219061946 35 286 0.0 0.0 0.00 0.00 0.00 91 1023.3
20200219061446 35 286 0.0 0.0 0.00 0.00 0.00 91 1023.4
20200219060946 35 286 0.0 0.0 0.00 0.00 0.00 91 1023.4
20200219060445 35 286 0.0 0.0 0.00 0.00 0.00 91 1023.5
20200219055945 35 286 1.0 3.0 0.00 0.00 0.00 91 1023.5
20200219055445 35 286 0.0 3.0 0.00 0.00 0.00 91 1023.5
20200219054944 35 286 0.0 0.0 0.00 0.00 0.00 90 1023.4
20200219054444 35 286 1.0 0.0 0.00 0.00 0.00 90 1023.5
20200219053944 36 286 1.0 2.0 0.00 0.00 0.00 90 1023.5
20200219053444 35 286 1.0 2.0 0.00 0.00 0.00 90 1023.4
20200219052943 35 286 1.0 2.0 0.00 0.00 0.00 90 1023.4
20200219052443 35 286 1.0 2.0 0.00 0.00 0.00 90 1023.5
20200219051943 35 286 2.0 3.0 0.00 0.00 0.00 89 1023.4
20200219051442 35 287 1.0 3.0 0.00 0.00 0.00 89 1023.4
20200219050942 35 317 1.0 1.0 0.00 0.00 0.00 89 1023.4
20200219050442 35 317 1.0 3.0 0.00 0.00 0.00 88 1023.3
20200219050112 36 317 1.0 3.0 0.00 0.00 0.00 88 1023.5
20200219045941 36 317 1.0 3.0 0.00 0.00 0.00 88 1023.5
20200219045441 36 226 1.0 2.0 0.00 0.00 0.00 88 1023.4
20200219044941 36 226 2.0 2.0 0.00 0.00 0.00 88 1023.5
20200219044441 35 226 1.0 3.0 0.00 0.00 0.00 88 1023.6
20200219043940 35 226 1.0 2.0 0.00 0.00 0.00 87 1023.6
20200219043440 35 226 0.0 1.0 0.00 0.00 0.00 87 1023.8
20200219042940 35 226 0.0 0.0 0.00 0.00 0.00 86 1023.9
20200219042439 35 226 1.0 2.0 0.00 0.00 0.00 86 1023.9
20200219041939 35 226 1.0 2.0 0.00 0.00 0.00 85 1024.0
20200219041439 36 226 3.0 3.0 0.00 0.00 0.00 85 1023.8
20200219040939 36 189 2.0 4.0 0.00 0.00 0.00 85 1023.7
20200219040438 36 194 1.0 4.0 0.00 0.00 0.00 85 1023.8
20200219035938 36 245 1.0 2.0 0.00 0.00 0.00 85 1023.8
20200219035438 36 245 1.0 2.0 0.00 0.00 0.00 85 1023.8
20200219034937 36 245 2.0 3.0 0.00 0.00 0.00 85 1023.8
20200219034437 36 245 3.0 3.0 0.00 0.00 0.00 86 1023.8
20200219033937 35 245 2.0 4.0 0.00 0.00 0.00 87 1023.7
20200219033437 35 250 2.0 4.0 0.00 0.00 0.00 87 1023.6
20200219032936 35 251 2.0 3.0 0.00 0.00 0.00 86 1023.6
20200219032436 35 251 2.0 3.0 0.00 0.00 0.00 87 1023.5
20200219031936 35 251 2.0 3.0 0.00 0.00 0.00 86 1023.7
20200219031436 35 295 1.0 3.0 0.00 0.00 0.00 86 1023.7
20200219030935 35 296 0.0 3.0 0.00 0.00 0.00 86 1023.8
20200219030435 35 296 1.0 1.0 0.00 0.00 0.00 85 1023.8
20200219025935 35 296 2.0 3.0 0.00 0.00 0.00 85 1023.8
20200219025434 35 295 1.0 3.0 0.00 0.00 0.00 85 1023.8
20200219024934 35 216 1.0 2.0 0.00 0.00 0.00 85 1023.9
20200219024434 35 185 1.0 2.0 0.00 0.00 0.00 85 1023.9
20200219023934 35 185 0.0 1.0 0.00 0.00 0.00 85 1024.1
20200219023433 35 185 1.0 1.0 0.00 0.00 0.00 85 1024.2
20200219023036 35 185 1.0 2.0 0.00 0.00 0.00 85 1024.1
20200219022933 35 185 1.0 2.0 0.00 0.00 0.00 85 1024.1
20200219022433 35 184 1.0 3.0 0.00 0.00 0.00 85 1024.2
20200219021932 35 206 2.0 3.0 0.00 0.00 0.00 84 1024.2
20200219021432 36 206 2.0 4.0 0.00 0.00 0.00 85 1024.3
20200219020932 35 206 1.0 4.0 0.00 0.00 0.00 85 1024.3
20200219020431 35 206 0.0 4.0 0.00 0.00 0.00 85 1024.3
20200219015931 35 220 0.0 0.0 0.00 0.00 0.00 86 1024.4
20200219015431 35 220 0.0 0.0 0.00 0.00 0.00 85 1024.5
20200219014931 35 249 0.0 0.0 0.00 0.00 0.00 85 1024.6
20200219014430 35 249 0.0 0.0 0.00 0.00 0.00 85 1024.7
20200219013930 35 249 0.0 0.0 0.00 0.00 0.00 85 1024.6
20200219013430 35 249 0.0 0.0 0.00 0.00 0.00 84 1024.6
20200219012929 35 249 1.0 1.0 0.00 0.00 0.00 84 1024.6
20200219012429 35 249 1.0 2.0 0.00 0.00 0.00 84 1024.7
20200219011929 35 249 1.0 2.0 0.00 0.00 0.00 84 1024.7
20200219011428 35 249 1.0 2.0 0.00 0.00 0.00 84 1024.7
20200219010928 35 249 1.0 2.0 0.00 0.00 0.00 83 1024.9
20200219010428 36 249 2.0 3.0 0.00 0.00 0.00 83 1025.0
20200219005928 36 249 2.0 3.0 0.00 0.00 0.00 82 1025.0
20200219005427 36 102 2.0 3.0 0.00 0.00 0.00 84 1025.1
20200219005116 36 102 2.0 4.0 0.00 0.00 0.00 84 1025.2
20200219004427 36 99 2.0 3.0 0.00 0.00 0.00 83 1025.2
20200219003926 36 99 3.0 4.0 0.00 0.00 0.00 83 1025.2
20200219003426 35 99 2.0 4.0 0.00 0.00 0.00 83 1025.2
20200219003231 36 42 1.0 2.0 0.00 0.00 0.00 83 1025.2
20200219002926 36 42 1.0 2.0 0.00 0.00 0.00 83 1025.2
20200219002425 36 41 0.0 1.0 0.00 0.00 0.00 82 1025.2
20200219001925 36 41 1.0 1.0 0.00 0.00 0.00 84 1025.2
20200219001425 35 41 0.0 1.0 0.00 0.00 0.00 83 1025.3
20200219000925 35 41 1.0 2.0 0.00 0.00 0.00 83 1025.4
20200219000425 35 41 1.0 3.0 0.00 0.00 0.00 83 1025.4
20200218235924 36 59 1.0 2.0 0.00 0.00 0.00 82 1025.4
20200218235424 36 59 2.0 3.0 0.00 0.00 0.00 80 1025.4
20200218234923 37 192 2.0 3.0 0.00 0.00 0.00 81 1025.4
20200218234423 37 204 4.0 5.0 0.00 0.00 0.00 81 1025.4
20200218234009 37 220 4.0 5.0 0.00 0.00 0.00 81 1025.4
20200218233923 37 220 4.0 5.0 0.00 0.00 0.00 81 1025.4
20200218233423 37 220 3.0 5.0 0.00 0.00 0.00 80 1025.3
20200218232922 37 234 2.0 4.0 0.00 0.00 0.00 80 1025.4
20200218232422 37 222 1.0 3.0 0.00 0.00 0.00 79 1025.5
20200218231922 37 222 1.0 2.0 0.00 0.00 0.00 78 1025.5
20200218231421 38 222 1.0 3.0 0.00 0.00 0.00 78 1025.3
20200218230921 38 181 1.0 2.0 0.00 0.00 0.00 78 1025.3
20200218230421 38 181 2.0 4.0 0.00 0.00 0.00 77 1025.4
20200218225921 39 181 3.0 3.0 0.00 0.00 0.00 76 1025.4
20200218225420 39 179 3.0 6.0 0.00 0.00 0.00 75 1025.3
20200218224920 39 177 2.0 5.0 0.00 0.00 0.00 75 1025.4
20200218224420 39 168 2.0 5.0 0.00 0.00 0.00 75 1025.4
20200218223920 39 133 3.0 4.0 0.00 0.00 0.00 76 1025.3
20200218223419 38 131 4.0 7.0 0.00 0.00 0.00 77 1025.4
20200218222919 38 133 4.0 7.0 0.00 0.00 0.00 77 1025.4
20200218222419 38 149 2.0 6.0 0.00 0.00 0.00 77 1025.5
20200218221918 38 154 1.0 3.0 0.00 0.00 0.00 77 1025.5
20200218221418 38 179 1.0 3.0 0.00 0.00 0.00 76 1025.7
20200218220918 38 181 2.0 6.0 0.00 0.00 0.00 76 1025.7
20200218220418 38 190 2.0 5.0 0.00 0.00 0.00 76 1025.8
20200218215917 38 170 2.0 5.0 0.00 0.00 0.00 76 1025.9
20200218215417 38 197 1.0 3.0 0.00 0.00 0.00 76 1025.9
20200218214917 39 216 0.0 0.0 0.00 0.00 0.00 75 1026.1
20200218214416 39 216 1.0 2.0 0.00 0.00 0.00 74 1026.1
20200218213916 39 216 2.0 3.0 0.00 0.00 0.00 74 1026.0
20200218213416 39 216 1.0 3.0 0.00 0.00 0.00 74 1026.0
20200218212916 39 256 1.0 2.0 0.00 0.00 0.00 74 1026.1
20200218212415 39 256 1.0 2.0 0.00 0.00 0.00 75 1026.1
20200218211915 39 256 1.0 2.0 0.00 0.00 0.00 75 1026.1
20200218211415 39 256 2.0 3.0 0.00 0.00 0.00 74 1026.0
20200218210914 39 256 3.0 4.0 0.00 0.00 0.00 74 1025.9
20200218210415 40 257 3.0 6.0 0.00 0.00 0.00 74 1025.9
20200218205914 40 237 2.0 3.0 0.00 0.00 0.00 73 1025.9
20200218205413 40 237 2.0 4.0 0.00 0.00 0.00 71 1025.9
20200218204913 40 237 2.0 4.0 0.00 0.00 0.00 71 1025.9
20200218204413 40 237 4.0 5.0 0.00 0.00 0.00 71 1025.9
20200218203913 41 152 4.0 9.0 0.00 0.00 0.00 71 1025.8
20200218203412 40 157 4.0 8.0 0.00 0.00 0.00 71 1025.7
20200218202912 41 146 5.0 7.0 0.00 0.00 0.00 70 1025.7
20200218202412 41 141 3.0 7.0 0.00 0.00 0.00 70 1025.7
20200218201911 41 148 3.0 5.0 0.00 0.00 0.00 69 1025.7
20200218201411 41 154 3.0 7.0 0.00 0.00 0.00 69 1025.6
20200218200911 41 177 4.0 6.0 0.00 0.00 0.00 69 1025.5
20200218200410 41 154 4.0 8.0 0.00 0.00 0.00 68 1025.5
20200218195910 41 161 4.0 8.0 0.00 0.00 0.00 68 1025.5
20200218195410 41 151 5.0 9.0 0.00 0.00 0.00 68 1025.5
20200218194910 41 141 4.0 8.0 0.00 0.00 0.00 68 1025.6
20200218194409 41 141 4.0 9.0 0.00 0.00 0.00 67 1025.6
20200218193959 41 145 3.0 5.0 0.00 0.00 0.00 66 1025.6
20200218193909 41 145 3.0 5.0 0.00 0.00 0.00 66 1025.6
20200218193409 42 174 3.0 6.0 0.00 0.00 0.00 65 1025.6
20200218193058 42 140 3.0 6.0 0.00 0.00 0.00 64 1025.6
20200218192908 42 140 3.0 6.0 0.00 0.00 0.00 64 1025.6
20200218192408 42 202 4.0 8.0 0.00 0.00 0.00 64 1025.7
20200218191908 42 185 5.0 9.0 0.00 0.00 0.00 64 1025.7
20200218191408 43 198 5.0 9.0 0.00 0.00 0.00 63 1025.6
20200218190907 43 179 5.0 9.0 0.00 0.00 0.00 63 1025.5
20200218190407 42 173 5.0 8.0 0.00 0.00 0.00 63 1025.6
20200218185907 42 174 4.0 9.0 0.00 0.00 0.00 63 1025.5
20200218185406 42 160 4.0 9.0 0.00 0.00 0.00 62 1025.5
20200218184906 43 171 4.0 9.0 0.00 0.00 0.00 61 1025.5
20200218184406 43 153 4.0 6.0 0.00 0.00 0.00 60 1025.4
20200218183906 43 145 5.0 10.0 0.00 0.00 0.00 60 1025.4
20200218183405 43 164 4.0 9.0 0.00 0.00 0.00 59 1025.2
20200218182906 44 152 5.0 9.0 0.00 0.00 0.00 57 1025.2
20200218182405 44 191 6.0 8.0 0.00 0.00 0.00 57 1025.1
20200218181904 44 191 6.0 9.0 0.00 0.00 0.00 57 1025.1
20200218181404 44 187 5.0 10.0 0.00 0.00 0.00 58 1025.0
20200218180904 43 179 4.0 7.0 0.00 0.00 0.00 58 1024.9
20200218180404 43 169 4.0 7.0 0.00 0.00 0.00 58 1025.0
20200218175903 44 150 5.0 8.0 0.00 0.00 0.00 57 1024.9
20200218175403 45 145 5.0 8.0 0.00 0.00 0.00 55 1024.8
20200218174903 45 191 4.0 9.0 0.00 0.00 0.00 55 1024.7
20200218174402 45 197 4.0 8.0 0.00 0.00 0.00 54 1024.6
20200218173902 46 187 4.0 7.0 0.00 0.00 0.00 53 1024.5
20200218173402 46 187 6.0 8.0 0.00 0.00 0.00 52 1024.4
20200218172902 47 192 6.0 10.0 0.00 0.00 0.00 52 1024.4
20200218172401 47 181 4.0 7.0 0.00 0.00 0.00 51 1024.4
20200218171901 47 197 4.0 7.0 0.00 0.00 0.00 51 1024.4
20200218171401 47 203 4.0 8.0 0.00 0.00 0.00 51 1024.3
20200218170900 47 195 4.0 7.0 0.00 0.00 0.00 51 1024.3
20200218170400 47 185 6.0 8.0 0.00 0.00 0.00 50 1024.2
20200218165900 49 132 7.0 11.0 0.00 0.00 0.00 47 1024.1
20200218165359 49 180 8.0 12.0 0.00 0.00 0.00 46 1023.9
20200218164859 49 219 7.0 11.0 0.00 0.00 0.00 46 1023.9
20200218164359 49 229 6.0 10.0 0.00 0.00 0.00 46 1023.8
20200218163859 49 247 6.0 10.0 0.00 0.00 0.00 46 1023.7
20200218163358 49 206 6.0 10.0 0.00 0.00 0.00 45 1023.6
20200218162858 50 181 6.0 10.0 0.00 0.00 0.00 44 1023.5
20200218162358 50 214 6.0 8.0 0.00 0.00 0.00 45 1023.5
20200218161857 49 214 5.0 10.0 0.00 0.00 0.00 47 1023.4
20200218161357 49 204 3.0 8.0 0.00 0.00 0.00 44 1023.4
20200218160857 49 184 3.0 5.0 0.00 0.00 0.00 44 1023.4
20200218160357 50 199 4.0 6.0 0.00 0.00 0.00 49 1023.2
20200218155856 50 165 4.0 7.0 0.00 0.00 0.00 43 1023.2
20200218155356 51 172 4.0 9.0 0.00 0.00 0.00 48 1023.2
20200218154856 52 200 4.0 6.0 0.00 0.00 0.00 44 1023.2
20200218154355 53 214 5.0 7.0 0.00 0.00 0.00 43 1023.2
20200218153855 53 212 6.0 10.0 0.00 0.00 0.00 43 1023.2
20200218153355 54 224 4.0 13.0 0.00 0.00 0.00 44 1023.2
20200218152855 55 240 4.0 8.0 0.00 0.00 0.00 30 1023.2
20200218152354 55 123 5.0 7.0 0.00 0.00 0.00 30 1023.1
20200218151854 55 118 5.0 8.0 0.00 0.00 0.00 30 1023.1
20200218151354 55 108 6.0 8.0 0.00 0.00 0.00 30 1023.1
20200218150853 55 107 6.0 10.0 0.00 0.00 0.00 29 1023.2
20200218150353 55 112 5.0 11.0 0.00 0.00 0.00 29 1023.2
20200218145853 56 128 4.0 7.0 0.00 0.00 0.00 30 1023.2
20200218145353 56 117 4.0 7.0 0.00 0.00 0.00 29 1023.2
20200218144852 55 108 4.0 6.0 0.00 0.00 0.00 30 1023.2
20200218144352 55 101 4.0 7.0 0.00 0.00 0.00 29 1023.2
20200218143852 55 68 5.0 8.0 0.00 0.00 0.00 29 1023.2
20200218143351 55 102 5.0 11.0 0.00 0.00 0.00 29 1023.3
20200218142851 55 120 6.0 10.0 0.00 0.00 0.00 30 1023.3
20200218142351 55 114 7.0 9.0 0.00 0.00 0.00 30 1023.4
20200218141850 55 121 8.0 11.0 0.00 0.00 0.00 30 1023.4
20200218141350 55 97 8.0 11.0 0.00 0.00 0.00 30 1023.4
20200218140850 55 126 8.0 12.0 0.00 0.00 0.00 30 1023.4
20200218140350 55 123 7.0 13.0 0.00 0.00 0.00 31 1023.4
20200218135849 55 113 6.0 11.0 0.00 0.00 0.00 31 1023.4
20200218135349 55 120 6.0 11.0 0.00 0.00 0.00 31 1023.3
20200218134849 55 118 7.0 10.0 0.00 0.00 0.00 30 1023.4
20200218134348 55 110 7.0 11.0 0.00 0.00 0.00 30 1023.5
20200218133849 55 64 6.0 11.0 0.00 0.00 0.00 31 1023.6
20200218133349 55 95 6.0 10.0 0.00 0.00 0.00 30 1023.6
20200218132848 55 181 6.0 11.0 0.00 0.00 0.00 31 1023.6
20200218132347 55 124 7.0 10.0 0.00 0.00 0.00 31 1023.7
20200218131847 55 104 7.0 12.0 0.00 0.00 0.00 30 1023.7
20200218131347 55 95 7.0 10.0 0.00 0.00 0.00 31 1023.8
20200218130846 55 111 7.0 11.0 0.00 0.00 0.00 32 1023.8
20200218130346 55 124 7.0 13.0 0.00 0.00 0.00 33 1023.8
20200218125846 55 113 7.0 11.0 0.00 0.00 0.00 35 1023.8
20200218125345 55 115 7.0 11.0 0.00 0.00 0.00 33 1023.9
20200218124845 55 71 6.0 11.0 0.00 0.00 0.00 34 1023.9
20200218124345 55 86 5.0 10.0 0.00 0.00 0.00 35 1023.9
20200218123845 55 116 5.0 8.0 0.00 0.00 0.00 37 1023.9
20200218123344 55 55 4.0 8.0 0.00 0.00 0.00 37 1024.1
20200218122844 55 62 2.0 8.0 0.00 0.00 0.00 39 1024.1
20200218122344 55 53 2.0 4.0 0.00 0.00 0.00 41 1024.1
20200218121843 54 2 3.0 4.0 0.00 0.00 0.00 38 1024.1
20200218121343 54 40 3.0 9.0 0.00 0.00 0.00 38 1024.2
20200218120843 54 20 1.0 3.0 0.00 0.00 0.00 46 1024.2
20200218120343 53 318 3.0 4.0 0.00 0.00 0.00 47 1024.2
20200218115842 53 30 4.0 8.0 0.00 0.00 0.00 48 1024.3
20200218115342 53 46 3.0 9.0 0.00 0.00 0.00 47 1024.4
20200218114842 53 43 4.0 6.0 0.00 0.00 0.00 44 1024.4
20200218114341 53 57 5.0 10.0 0.00 0.00 0.00 42 1024.4
20200218113841 53 55 4.0 7.0 0.00 0.00 0.00 43 1024.4
20200218113341 53 39 5.0 7.0 0.00 0.00 0.00 42 1024.6
20200218112841 53 50 5.0 10.0 0.00 0.00 0.00 41 1024.7
20200218112340 53 59 4.0 10.0 0.00 0.00 0.00 48 1024.8
20200218111840 52 120 4.0 6.0 0.00 0.00 0.00 51 1024.9
20200218111340 52 46 5.0 7.0 0.00 0.00 0.00 52 1024.9
20200218110839 51 66 6.0 7.0 0.00 0.00 0.00 60 1025.0
20200218110339 51 107 7.0 11.0 0.00 0.00 0.00 61 1025.1
20200218105839 50 42 6.0 9.0 0.00 0.00 0.00 62 1025.1
20200218105339 50 42 4.0 10.0 0.00 0.00 0.00 62 1025.2
20200218104838 50 76 3.0 7.0 0.00 0.00 0.00 64 1025.2
20200218104338 50 93 4.0 6.0 0.00 0.00 0.00 65 1025.4
20200218103838 49 47 3.0 9.0 0.00 0.00 0.00 69 1025.4
20200218103337 49 50 1.0 5.0 0.00 0.00 0.00 71 1025.4
20200218102837 48 357 1.0 2.0 0.00 0.00 0.00 74 1025.4
20200218102337 47 357 1.0 2.0 0.00 0.00 0.00 74 1025.6
20200218101836 46 336 1.0 2.0 0.00 0.00 0.00 75 1025.6
20200218101336 46 336 1.0 2.0 0.00 0.00 0.00 75 1025.7
20200218100836 45 336 1.0 3.0 0.00 0.00 0.00 75 1025.7
20200218100336 45 336 1.0 3.0 0.00 0.00 0.00 77 1025.7
20200218095835 45 336 2.0 3.0 0.00 0.00 0.00 78 1025.9
20200218095335 45 336 1.0 3.0 0.00 0.00 0.00 78 1025.9
20200218094835 44 334 1.0 3.0 0.00 0.00 0.00 79 1026.0
20200218094334 44 247 2.0 3.0 0.00 0.00 0.00 80 1025.9
20200218093834 43 247 2.0 4.0 0.00 0.00 0.00 81 1026.0
20200218093334 43 206 2.0 4.0 0.00 0.00 0.00 82 1026.0
20200218092834 43 112 1.0 2.0 0.00 0.00 0.00 82 1026.1